www.pogodaiklimat.ru

Погода и климат >> Архив погоды >> Россия >> Чукотка >> Омолон


АРХИВ ПОГОДЫ в Омолоне

Время (UTC), дата Ветер
(напр.,м/с)
 
Видим.   Явления Облачность Т
(С)
Тd
(С)
f
(%)
Тe
(С)
Тes
(С)
Комфортность P
(гПа)
Po
(гПа)
Тmin
(С)
Tmax
(С)
R
(мм)
R24
(мм)
S
(см)
12 11.08 ЮВ 1
{5}
50 км 3/3 1500 м
[Sc diur, vesp]
+10.1 +6.5 78 +10 +10 1011.1 980.0
15 11.08 штиль 0
{3}
50 км 3/0
[Ci fib]
+4.5 +4.2 98 +3 +3 1011.6 979.8
18 11.08 штиль 0
{2}
50 км 3/1 600 м
[Sc Ci fib]
+3.7 +3.7 100 +2 +3 1011.4 979.6
21 11.08 З 1
{2}
50 км 8/8 600 м
[Sc Ci fib]
+12.3 +8.0 75 +12 +13 1009.5 978.7 +2.4
00 12.08 В 3
{6}
50 км 6/3 600 м
[Cu hum Ci fib]
+19.6 +6.0 41 +20 +25 1007.2 977.3
03 12.08 В 4
{8}
50 км 9/8 600 м
[Cu hum Ci fib]
+20.9 +4.9 35 +22 +23 комфорт 1006.0 976.2
06 12.08 В 3
{8}
50 км 3/3 1000 м
[Cu hum Ci fib]
+21.3 +3.9 32 +22 +23 комфорт 1005.0 975.2
09 12.08 ЮЗ 1
{6}
50 км 4/3 1000 м
[Sc diur, vesp Ci fib]
+17.6 +7.3 51 +19 +19 1005.1 975.0 +21.5
12 12.08 СЗ 2
{3}
50 км 3/3 1000 м
[Sc]
+9.2 +6.6 84 +7 +7 1006.1 975.0
15 12.08 штиль 0
{2}
50 км 6/3 1000 м
[Sc Ci fib]
+4.3 +4.1 99 +3 +3 1006.3 974.6
18 12.08 штиль 0
{1}
50 км 8/4 1000 м
[Sc Ac trans]
+5.4 +5.0 97 +4 +4 1005.8 974.3
21 12.08 СЗ 4
{8}
18 км дым 9/4 1000 м
[Sc Ac trans Ci fib]
+12.9 +9.2 78 +11 +12 1004.0 973.5 +3.9
00 13.08 З 3
{9}
19 км дым 10/3 1000 м
[Sc As op]
+15.9 +11.1 73 +15 +16 1002.4 972.2
03 13.08 СЗ 4
{8}
23 км гроза без осадков 10/8 600 м
[Cb cap Ac As]
+15.1 +10.5 74 +14 +14 1002.5 972.3
06 13.08 З 4
{9}
22 км в посл. час ливневой дождь {гроза} 8/8 600 м
[Cb cap]
+16.1 +8.3 60 +15 +16 1003.3 973.1
09 13.08 СЗ 2
{8}
23 км дым 3/3 1000 м
[Sc]
+14.3 +6.7 60 +14 +14 1005.3 974.7 +18.0 1
12 13.08 СЗ 3
{6}
19 км дым 6/0
[Ac trans Ci fib]
+10.5 +6.5 76 +9 +9 1006.8 975.9
15 13.08 СЗ 3
{6}
18 км дым 4/0
[Ac trans Ci fib]
+9.1 +6.0 81 +7 +7 1008.2 977.1
18 13.08 СЗ 4
{7}
50 км 9/3 1000 м
[Sc Ac trans Ci fib]
+8.0 +6.1 88 +5 +5 1009.4 978.1
21 13.08 СЗ 4
{9}
50 км 10/0
[Ac trans Ci fib]
+8.5 +5.8 83 +5 +6 1010.9 979.7 +7.9
00 14.08 З 5
{9}
50 км 9/1 600 м
[St Ac und]
+9.7 +6.2 79 +7 +8 1012.4 981.2
03 14.08 З 5
{9}
50 км 8/1 1000 м
[Sc Ac As]
+12.0 +6.4 69 +10 +11 1013.1 982.1
06 14.08 СЗ 4
{10}
50 км 4/4 1000 м
[Sc]
+12.1 +6.6 69 +10 +11 1013.7 982.7
09 14.08 З 4
{10}
50 км 8/6 600 м
[Sc Ci fib]
+9.4 +5.8 78 +7 +7 1016.0 984.6 +12.5
12 14.08 З 2
{7}
50 км 6/6 700 м
[Sc]
+7.6 +5.0 84 +6 +6 1017.7 986.2
15 14.08 СЗ 1
{5}
50 км 10/10 630 м
[Sc]
+7.2 +5.0 86 +6 +6 1018.6 986.9
18 14.08 СЗ 1
{3}
50 км 10/10 630 м
[Sc]
+0.6 +5.0 100 -2 -2 1019.9 988.1
21 14.08 СЗ 2
{3}
50 км 10/10 600 м
[Sc]
+8.5 +6.0 84 +7 +7 1020.7 989.2 +6.0
00 15.08 З 2
{6}
50 км 3/3 600 м
[Cu hum]
+13.5 +4.9 56 +13 +18 1019.8 988.9
03 15.08 З 2
{5}
50 км 3/1 600 м
[Cu hum Ci fib]
+16.3 +2.3 39 +17 +23 1019.1 980.4
06 15.08 З 2
{8}
50 км 1/1 600 м
[Cu hum]
+17.6 -1.6 27 +18 +20 1019.1 988.5
09 15.08 СВ 1
{5}
50 км 6/0
[Ci fib]
+12.0 +1.0 47 +12 +12 1021.1 989.9 +17.8
12 15.08 штиль 0
{3}
50 км 8/0
[Ci fib]
+0.8 +0.1 95 -1 -1 1024.1 991.5
15 15.08 штиль 0
{2}
50 км 6/0
[Ci fib]
-2.5 -2.5 100 -4 -4 1025.7 992.6
18 15.08 В 1
{2}
50 км 5/0
[Ci fib]
-3.0 -3.2 99 -6 -5 1027.5 994.3
21 15.08 Ю 1
{2}
50 км 3/0 2000 м
[Ci fib]
+6.5 +0.4 65 +6 +9 1027.0 995.0 -3.7
00 16.08 Ю 1
{3}
50 км ясно +14.5 -1.3 34 +15 +24 1025.6 994.5
03 16.08 СЗ 2
{4}
50 км 3/0
[Ci fib]
+17.8 -0.5 29 +18 +25 1024.2 993.5
06 16.08 СВ 2
{6}
50 км 3/0
[Ci fib]
+18.9 -1.0 26 +20 +22 1022.9 992.4
09 16.08 СВ 1
{5}
25 км дым ясно +13.1 +2.9 50 +14 +14 1024.0 992.8 +19.4
12 16.08 СВ 1
{4}
26 км дым ясно +1.9 +0.5 90 0 0 1026.3 993.8
15 16.08 Ю 1
{4}
25 км дым ясно -1.1 -1.4 98 -3 -3 1027.8 994.8
18 16.08 штиль 0
{2}
24 км дым ясно -2.2 -2.4 99 -4 -3 1029.2 996.0
21 16.08 В 1
{2}
50 км 1/0
[Ci fib]
+9.9 +2.9 62 +10 +13 1028.2 996.5 -2.6
00 17.08 ЮВ 2
{6}
50 км 1/0
[Ci fib]
+15.5 -0.4 34 +16 +23 1027.0 995.9
03 17.08 Ю 2
{6}
50 км ясно +18.6 -0.8 27 +19 +26 1025.7 995.0
06 17.08 ЮВ 3
{6}
50 км 3/0
[Ci fib]
+19.8 -1.4 24 +20 +22 1024.8 994.3
09 17.08 ЮВ 1
{6}
50 км 3/0
[Ac lent Ci sp]
+15.3 +1.8 40 +16 +16 1025.7 994.7 +20.2
12 17.08 ЮВ 2
{5}
50 км 3/0
[Ac lent Ci sp]
+7.1 +1.7 68 +5 +5 1028.2 996.2
15 17.08 ЮВ 1
{3}
50 км 1/0
[Ac lent]
+2.2 +0.6 89 0 0 1028.9 996.3
18 17.08 В 2
{3}
50 км 8/0
[Ac As]
+3.7 +1.8 87 +1 +1 1028.7 996.2
21 17.08 В 1
{3}
50 км 10/0
[Ac und]
+9.5 +4.5 71 +9 +10 1027.7 996.0 +0.7
00 18.08 Ю 1
{3}
50 км 9/3 1000 м
[Sc Ac trans]
+14.7 +5.7 55 +15 +18 1025.7 994.7
03 18.08 ЮВ 2
{8}
50 км 8/5 1000 м
[Sc Ac trans]
+16.9 +6.7 51 +17 +19 1024.4 993.6
06 18.08 Ю 2
{6}
50 км 9/3 1000 м
[Sc Ac trans Ci fib]
+18.6 +7.7 49 +20 +20 1023.4 992.8

 

Местоположение метеостанции Омолон (Чукотка, Россия): широта 65.23 долгота 160.50 высота над уровнем моря 260 м.

В архиве по умолчанию представлена погода в Омолоне за последнюю неделю. Архивные данные за месяц целиком и за предыдущие месяцы, начиная с января 2011 года, Вы можете получить, выбрав интересующий диапазон дат из раскрывающегося списка и нажав кнопку "Ввод!".


*Определитесь, кто Вы:
робот инопланетянин человек

Внимание! Время в таблицах - всемирное. Для получения местного времени необходимо прибавить поправку, которая равна 12 ч.

Смотрите также архив погоды в соседних городах и на ближайших метеорологических станциях:

Погода в Кегали (Магаданская область, Россия) (112 км)
Погода в Верхне-Пенжино (Камчатский край, Россия) (209 км)
Погода в Баимке (Чукотка, Россия) (222 км)
Погода в Лабазной (Магаданская область, Россия) (235 км)
Погода в Коркодоне (Магаданская область, Россия) (315 км)
Погода в Константиновской (Чукотка, Россия) (326 км)
Погода в Балыгычане (Магаданская область, Россия) (339 км)
Погода в Анюйске (Чукотка, Россия) (350 км)
Погода в Островном (Чукотка, Россия) (358 км)
Погода в Эвенске (Магаданская область, Россия) (374 км)

Пояснения к столбцам:

Ветер - указаны скорость ветра в м/с - средняя за 10 мин, порывы в срок и между сроками (в фигурных скобках) и направление, откуда дует ветер: С - северный, СВ - северо-восточный, В - восточный, ЮВ - юго-восточный, Ю - южный, ЮЗ - юго-западный, З - западный, СЗ - северо-западный.
Видимость - горизонтальная дальность видимости в метрах или километрах. При видимости от 1 до 10 км при отсутствии осадков обычно наблюдается дымка, при ухудшении видимости до 1 км и менее - туман. В сухую погоду видимость может ухудшаться дымом, пылью или мглою.
Явления - указаны атмосферные явления, наблюдавшиеся в срок или в последний час перед сроком; фигурными скобками обозначены явления, наблюдавшиеся между сроками (за 1-3 часа до срока); квадратными скобками обозначены град или гололедные отложения с указанием их диаметра в мм.
Облачность - указаны через наклонную черту общая и нижняя облачность в баллах и высота нижней границы облаков в метрах; квадратными скобками обозначены формы облаков: Ci - перистые, Cs - перисто-слоистые, Cc - перисто-кучевые, Ac - высококучевые, As - высокослоистые, Sc - слоисто-кучевые, Ns - слоисто-дождевые, Cu - кучевые, Cb - кучево-дождевые. Подробнее классификацию облаков см. в Атласе облаков (PDF).
T - Температура воздуха - температура, измеренная на высоте 2 м над землей.
Td - Температура точки росы - температура, при понижении до которой содержащийся в воздухе водяной пар достигнет насыщения.
f - Относительная влажность воздуха - влажноcть воздуха, измеренная на высоте 2 м над землей.
Te - Эффективная температура - температура, которую ощущает одетый по сезону человек в тени. Характеристика душности погоды. При расчете учитывается влияние влажности воздуха и скорости ветра на теплоощущения человека.
Tes - Эффективная температура на солнце - температура, которую ощущает человек, с поправкой на солнечный нагрев. Характеристика знойности погоды. Зависит от высоты солнца над горизонтом, облачности и скорости ветра. Ночью, в пасмурную погоду, а также при ветре 12 м/с и более поправка равна нулю.
P - Атмосферное давление - приведенное к уровню моря атмосферное давление.
Po - Атмосферное давление - измеренное на уровне метеостанции атмосферное давление.
Tmin - Минимальная температура - минимум температуры воздуха на высоте 2 м над землей.
Tmax - Максимальная температура - максимум температуры воздуха на высоте 2 м над землей.
R - Количество осадков - Количество выпавших осадков за период времени, мм. При наведении курсора мыши на число - период времени, за который выпало указанное количество осадков.
R24 - Количество осадков - Количество выпавших осадков за 24 часа, мм.
S - Снежный покров - Высота снежного покрова, см. При наведении курсора мыши на число - состояние снежного покрова и степень покрытия местности в баллах.